Location: Lake Almanor
(40.2485°N, 121.1442°W)
Time: 09:00:38
(UTC-08:00)

STARLINK-1091 - Pass Details

Date: 01 February 2020
Orbit: 349 x 350 km, 53.0° (Epoch: 18 February)

Event Time Altitude Azimuth Distance (km) Brightness Sun altitude
Rises 18:38:13 0° 306° (NW) 2,162 7.4 -14.6°
Reaches altitude 10° 18:40:15 10° 303° (WNW) 1,317 6.2 -15.0°
Maximum altitude 18:43:08 61° 223° (SW) 401 3.1 -15.6°
Enters shadow 18:44:51 22° 147° (SSE) 838 4.3 -15.9°
